Temperature
19 19 19 19 19 19 19 19 19 19 19 19 19 19 19 19 19 19 19 19 19 19 19 19 18 18 18 18 18 18 18 18 18 18 18 18 18 18 18 18 18 18 18
19 19 19 19 19 19 19 19 19 19 19 19 19 19 19 19 19 19 19 19 19 19 19 19 18 18 18 18 18 18 18 18 18 18 18 18 18 18 18 18 18 18 18
20 20 20 20 19 19 19 19 19 19 19 19 19 19 19 19 19 19 19 19 19 19 18 18 18 18 18 18 18 18 18 18 18 18 18 18 18 18 18 18 18 18 18
20 20 20 20 19 19 19 19 19 19 19 19 19 19 19 19 19 19 19 19 18 18 18 18 18 18 18 18 18 18 18 18 18 18 18 18 18 18 18 18 18 18 18
20 20 20 19 19 19 19 19 19 19 19 19 19 19 19 19 19 19 19 18 18 18 18 18 18 18 18 18 18 18 18 18 18 18 18 18 18 18 18 18 18 18 18
20 20 20 19 19 19 19 19 19 19 19 19 19 19 19 19 19 19 18 18 18 18 18 18 18 18 18 18 18 18 18 18 18 18 18 18 18 18 18 18 18 18 18
20 20 20 19 19 19 19 19 19 19 19 19 19 19 19 19 18 19 18 18 18 18 18 18 18 18 18 18 18 18 18 18 18 18 18 17 18 18 18 18 18 18 18
20 20 20 19 19 19 19 19 19 19 19 19 19 19 19 19 19 19 18 18 18 18 18 18 18 18 18 18 18 18 18 18 18 18 18 18 18 18 18 17 17 18 18
20 20 20 19 19 19 19 19 19 19 19 19 19 19 19 19 19 19 19 18 18 18 18 18 18 18 18 18 18 18 18 18 18 18 18 18 18 18 18 18 18 18 18
20 20 20 20 19 19 19 19 19 19 19 19 19 19 19 19 19 19 18 18 18 18 18 18 18 18 18 18 18 18 18 18 18 18 18 18 18 18 18 18 18 17 17
20 20 20 19 19 19 19 19 19 19 19 19 19 18 18 19 19 18 18 18 18 18 18 18 18 18 18 18 18 18 18 18 18 18 18 18 18 18 18 18 18 17 17
19 19 19 19 19 19 19 19 19 19 19 19 18 18 18 18 18 18 18 18 18 18 18 18 18 18 18 18 18 18 18 18 18 18 18 18 18 18 18 18 18 17 17
20 20 19 19 19 19 19 19 19 19 19 18 18 18 18 18 18 18 18 18 18 18 18 18 18 18 18 18 18 18 18 18 18 18 18 18 18 18 18 18 18 17 17
20 20 19 19 19 19 19 19 19 19 19 18 18 18 18 18 18 18 18 18 18 18 18 18 18 18 18 18 18 18 18 18 18 18 18 18 18 18 18 18 17 17 17
20 20 19 19 19 19 19 19 19 19 19 18 18 18 18 18 18 18 18 18 18 18 18 18 18 18 18 18 18 18 18 18 18 18 18 18 18 18 18 18 17 17 17
20 20 20 19 19 19 19 19 19 19 18 18 18 18 18 18 18 18 18 18 18 18 18 18 18 18 18 18 18 18 18 18 18 18 18 18 18 18 17 17 17 17 17
20 20 20 19 19 19 19 19 19 19 19 18 18 18 18 18 18 18 18 18 18 18 18 18 18 18 18 18 18 18 18 18 18 18 18 18 18 18 17 17 17 17 17
20 20 20 19 19 19 19 19 19 19 19 19 18 18 18 18 18 18 18 18 18 18 18 18 18 18 18 18 18 18 18 18 18 18 18 18 18 18 18 18 18 17 17
21 20 20 20 19 19 19 19 19 19 19 19 18 18 18 18 18 18 18 18 18 18 18 18 18 18 18 18 18 18 18 18 18 18 18 18 18 18 18 18 18 17 17
21 20 20 20 20 19 19 19 19 19 19 19 18 18 18 18 18 18 18 18 18 18 18 18 18 18 18 18 18 18 18 18 18 18 18 18 18 18 18 18 18 17 17
21 21 20 20 20 20 19 19 19 19 19 19 19 18 18 18 18 18 18 18 18 18 18 18 18 18 18 18 18 18 18 18 18 18 18 18 18 17 17 17 17 17 17
21 21 20 20 20 20 19 19 19 19 19 19 19 18 18 18 18 18 18 18 18 18 18 18 18 18 18 18 18 18 17 18 18 18 18 18 18 17 17 17 17 17 17
21 21 21 20 20 20 20 19 19 19 19 19 19 19 19 18 18 18 18 18 18 18 18 18 18 18 18 17 17 17 17 17 17 17 17 17 17 17 17 17 17 17 17
22 21 21 20 20 20 20 20 19 19 19 19 19 19 18 18 18 18 18 18 18 18 18 18 18 17 17 18 17 17 17 17 17 17 17 17 17 17 17 17 17 17 17
22 21 21 21 20 20 20 20 19 19 19 19 19 19 19 18 18 18 18 18 18 18 18 18 18 18 18 17 17 17 17 17 17 17 16 17 17 17 17 17 17 17 17
22 21 21 21 20 20 20 20 20 19 19 19 19 19 19 19 19 18 18 18 18 18 18 18 18 18 18 17 17 17 17 17 17 17 17 17 17 17 17 17 17 17 17
Wind_Speed
1 2 5 6 6 6 7 7 7 8 8 9 10 11 11 11 12 13 14 14 14 15 14 14 14 13 13 13 13 13 13 13 13 13 13 13 13 13 12 13 12 11 13
4 4 7 7 8 8 8 8 8 8 9 9 10 10 10 11 12 12 13 14 15 14 14 13 13 13 12 12 12 12 12 13 12 12 12 12 12 12 12 12 11 10 12
4 5 8 8 8 9 9 8 8 8 9 9 10 10 10 10 11 12 13 14 14 14 14 13 13 13 12 11 11 11 11 11 11 11 10 8 9 11 12 12 11 11 11
6 6 8 9 9 9 9 9 9 9 9 9 10 10 9 10 11 12 13 13 13 13 13 12 13 12 11 11 10 10 10 10 9 8 7 7 8 10 11 12 12 11 11
6 7 9 10 10 10 10 9 9 10 10 9 9 10 9 9 10 11 12 12 12 12 12 12 12 11 10 10 10 9 9 8 7 6 6 7 7 10 11 12 12 11 11
6 7 9 11 10 10 10 10 10 10 9 9 9 9 9 9 9 10 10 11 11 11 10 10 10 10 9 9 9 9 8 7 6 5 6 7 7 10 11 12 12 12 11
6 6 9 11 10 10 10 10 10 10 9 9 9 9 8 8 9 10 10 10 10 10 9 9 9 9 8 8 8 7 7 6 6 5 5 6 8 10 11 12 12 12 12
7 6 8 10 10 9 10 10 11 10 9 9 8 8 7 7 8 9 8 8 9 9 9 8 8 8 8 7 7 6 6 5 6 6 5 6 9 11 12 13 13 13 12
7 6 5 7 7 8 9 10 10 10 9 8 8 8 7 8 9 8 8 8 8 8 7 7 6 6 6 6 6 5 5 5 4 4 5 6 10 12 13 14 13 13 12
6 5 4 4 5 5 6 8 9 9 8 8 8 8 8 8 8 8 7 7 7 6 5 5 4 5 6 6 5 5 5 3 3 4 4 7 10 12 13 13 13 13 12
6 4 4 4 4 4 5 6 6 7 6 6 7 8 7 4 4 5 6 6 6 6 5 3 3 3 4 5 5 5 3 2 3 3 4 7 10 11 12 12 12 12 11
6 4 4 4 3 3 4 4 3 4 4 4 4 5 4 3 3 3 3 4 5 5 4 3 3 2 2 3 4 3 1 3 3 3 5 8 10 11 11 11 11 11 11
6 6 4 3 3 3 3 3 2 2 2 3 4 4 4 3 2 1 1 1 2 3 3 3 2 2 2 2 2 2 2 3 3 4 6 8 9 11 11 11 11 11 10
7 5 4 4 3 3 3 3 2 2 2 2 3 4 3 2 2 2 2 1 1 2 2 1 1 1 2 2 3 3 3 3 3 5 7 9 9 10 10 10 10 11 10
7 5 4 4 3 3 3 2 3 2 2 3 3 4 4 3 3 3 2 2 1 2 2 1 1 1 2 1 2 4 4 5 5 5 6 8 9 10 10 10 10 10 10
7 6 4 4 4 4 3 2 2 2 2 3 3 4 5 4 3 3 2 2 2 2 2 2 2 1 1 1 1 2 3 4 4 4 5 6 8 9 10 10 10 10 10
7 6 5 5 4 4 3 2 3 2 3 2 2 4 5 5 4 3 2 2 1 1 2 2 2 1 1 1 1 1 1 3 4 4 4 4 5 7 8 9 10 10 10
7 6 5 6 5 4 3 2 2 3 3 2 2 4 5 5 4 3 3 2 1 1 1 2 2 2 2 1 1 1 1 1 2 3 4 4 4 5 6 8 9 9 9
8 7 6 5 5 3 2 2 2 2 2 2 2 3 3 4 4 3 2 1 2 2 1 1 2 1 1 1 1 1 1 0 1 2 2 3 5 5 5 7 8 9 9
8 8 7 5 5 4 2 2 2 2 1 1 1 2 2 2 3 3 1 1 2 2 2 2 1 1 1 0 1 2 2 1 0 1 2 2 3 5 6 6 5 7 9
8 7 7 6 5 3 2 2 1 1 0 0 1 2 1 2 2 2 2 1 2 2 1 1 1 2 1 1 2 2 3 2 1 1 1 1 2 3 4 5 5 5 5
9 8 7 7 5 4 3 3 2 2 1 1 0 1 2 2 2 2 2 2 1 1 1 1 1 1 0 1 1 1 2 4 3 2 1 0 1 1 2 3 5 5 4
9 9 9 7 6 5 4 2 2 2 2 1 1 0 1 2 2 2 2 2 1 2 1 1 1 2 1 2 1 3 2 2 3 3 2 1 1 0 1 1 3 5 5
10 8 8 7 6 5 5 4 4 3 2 2 2 1 1 1 2 2 2 2 2 1 1 1 1 1 2 1 1 0 2 3 1 2 3 2 2 1 2 2 2 3 5
10 9 7 7 6 5 5 5 4 3 3 2 1 1 2 1 1 2 2 2 2 1 1 1 1 1 1 1 1 0 0 1 1 2 2 3 3 2 2 2 2 3 4
8 8 8 7 6 6 5 5 5 5 3 2 2 2 1 1 1 1 1 2 2 2 2 1 1 1 1 1 1 1 1 1 1 2 2 2 2 3 3 2 2 2 3
Wind_Direction
199 178 123 115 109 102 102 104 102 101 103 104 105 106 108 113 120 125 130 133 133 134 135 135 137 138 136 136 133 134 137 136 134 134 134 132 134 133 130 131 129 126 129
165 142 116 108 106 103 103 107 107 107 110 113 112 111 109 115 123 126 129 133 133 134 135 137 138 138 138 137 136 135 137 138 139 139 137 137 140 139 136 133 134 135 134
134 128 112 106 105 103 103 104 106 109 114 118 117 115 115 116 123 128 130 133 134 135 136 139 142 143 141 140 136 134 136 141 145 144 141 137 142 143 140 138 139 141 139
130 124 114 107 103 100 99 100 102 106 112 119 120 121 121 120 124 129 132 134 136 138 140 142 145 146 147 145 143 143 144 149 151 148 142 141 144 147 147 146 145 146 145
120 123 118 107 101 96 95 98 101 106 113 118 121 123 125 124 126 131 133 136 139 142 144 146 148 149 150 152 150 150 151 150 152 147 142 144 147 155 155 154 154 154 152
120 126 120 110 103 97 96 99 102 107 114 118 121 125 128 128 131 134 135 140 143 144 147 148 149 151 155 157 158 158 161 159 154 146 145 147 154 161 163 163 162 160 158
119 122 121 112 105 100 100 101 101 106 111 115 117 123 129 134 134 137 140 144 147 149 149 149 151 154 161 163 161 162 163 166 153 147 153 159 162 165 170 170 169 167 166
123 120 121 112 108 107 106 106 105 107 111 115 117 119 126 139 147 149 148 148 149 152 154 157 161 166 174 175 169 164 165 163 149 154 166 175 174 175 179 178 174 171 169
117 112 110 119 116 112 112 111 110 108 108 113 119 123 127 138 152 153 153 156 156 159 165 165 169 181 187 187 179 164 159 152 143 160 177 179 180 182 184 182 179 177 176
108 108 107 111 114 119 121 116 113 109 109 108 111 119 122 131 144 155 159 159 156 162 167 173 187 194 195 192 180 166 164 157 142 172 183 182 183 182 182 182 180 180 180
107 104 102 103 113 124 123 114 118 115 112 109 114 121 124 117 134 153 158 157 157 150 160 170 168 180 186 176 172 177 176 157 146 167 176 178 179 180 181 177 176 179 180
118 119 110 110 118 121 112 113 117 115 120 114 115 122 122 115 120 123 145 141 149 147 141 124 103 104 135 143 158 168 162 149 155 175 181 179 179 178 176 174 178 181 184
129 122 119 120 118 113 102 118 114 112 122 124 115 122 123 115 116 104 110 112 126 123 107 95 85 89 119 145 155 161 158 162 180 188 180 176 183 184 179 179 180 183 189
119 120 115 107 104 107 118 120 120 118 116 122 135 128 139 127 108 121 122 114 112 120 126 113 104 111 128 144 162 159 153 169 173 182 182 180 182 183 182 183 187 191 195
124 123 123 114 100 97 102 112 108 105 115 130 134 131 135 122 110 115 122 135 135 128 125 118 111 100 124 164 170 157 154 162 171 179 187 185 184 185 186 186 191 196 201
136 137 129 115 105 100 94 90 105 122 120 114 120 120 124 131 118 112 98 104 108 129 148 137 116 113 139 144 123 139 155 166 174 171 184 193 190 190 194 195 196 201 205
149 145 137 130 114 102 94 95 106 122 121 116 116 108 120 127 128 121 103 92 89 125 120 103 86 74 85 83 79 103 144 162 170 181 190 189 194 196 197 197 199 203 208
146 143 146 134 118 106 103 100 103 107 113 118 121 114 119 128 132 121 107 113 136 119 90 96 87 67 46 46 33 8 106 150 166 178 188 192 196 204 205 205 203 208 212
151 146 144 136 133 124 111 97 96 101 107 112 113 118 122 118 118 120 115 124 117 88 72 92 81 101 82 24 353 352 344 93 189 191 191 196 198 200 206 215 215 214 215
153 148 149 145 144 137 113 84 59 64 77 107 115 126 120 122 123 122 122 98 101 88 68 72 81 77 108 35 17 6 341 301 278 212 219 211 205 203 207 215 222 229 224
155 151 154 153 158 144 127 127 131 153 203 226 195 146 143 142 129 120 106 89 103 110 119 107 99 72 38 60 52 5 353 345 338 276 239 217 219 206 206 211 213 224 229
167 163 160 165 167 168 172 172 169 167 192 196 211 144 168 161 160 138 134 123 123 113 68 85 113 88 324 88 119 67 1 350 353 344 353 169 233 204 203 209 202 211 218
173 173 172 174 173 176 171 141 114 75 38 28 13 298 240 177 164 159 148 147 150 151 179 203 161 150 223 290 143 138 147 247 314 330 344 13 2 308 265 228 208 210 212
180 173 169 172 174 175 161 151 153 160 180 212 213 218 242 207 175 162 168 161 161 151 175 227 170 165 159 264 309 208 179 171 168 310 325 331 320 293 272 265 235 218 213
177 173 171 169 174 175 162 160 158 169 188 197 190 200 225 237 207 190 171 159 154 153 165 145 117 128 153 177 213 253 56 89 140 171 279 314 328 300 274 249 242 225 221
170 171 172 172 178 175 170 169 167 174 176 173 197 205 223 231 243 226 170 172 178 164 166 156 141 131 148 160 186 168 155 170 213 181 224 265 289 295 294 273 252 240 225
Height
1513 1512 1510 1509 1507 1506 1505 1505 1505 1505 1505 1505 1505 1505 1505 1504 1504 1505 1507 1509 1511 1513 1515 1516 1518 1519 1521 1522 1524 1525 1526 1527 1528 1529 1531 1532 1533 1534 1535 1536 1537 1538 1539
1514 1512 1511 1509 1508 1507 1506 1505 1505 1505 1506 1506 1506 1506 1506 1505 1505 1506 1507 1510 1512 1514 1515 1517 1518 1520 1521 1523 1524 1525 1526 1527 1529 1530 1531 1533 1534 1535 1536 1536 1538 1538 1539
1514 1512 1511 1510 1509 1508 1507 1506 1506 1506 1506 1506 1507 1507 1507 1506 1506 1507 1508 1511 1513 1514 1516 1517 1519 1521 1522 1523 1525 1525 1526 1528 1529 1531 1532 1533 1534 1535 1536 1537 1538 1539 1540
1514 1513 1512 1511 1510 1509 1508 1507 1507 1507 1507 1507 1508 1508 1508 1508 1508 1508 1510 1512 1514 1515 1517 1518 1520 1521 1522 1524 1525 1526 1527 1528 1530 1531 1532 1533 1533 1534 1535 1537 1538 1539 1540
1516 1515 1513 1512 1511 1510 1509 1508 1508 1508 1508 1508 1509 1509 1510 1510 1510 1511 1512 1513 1515 1516 1517 1519 1520 1521 1523 1524 1525 1526 1527 1528 1529 1530 1531 1532 1533 1534 1535 1536 1537 1539 1540
1517 1516 1515 1514 1513 1512 1511 1510 1509 1509 1509 1510 1510 1510 1511 1511 1512 1513 1514 1515 1516 1517 1518 1519 1520 1522 1523 1524 1525 1526 1528 1529 1529 1530 1531 1532 1533 1534 1535 1536 1537 1538 1539
1518 1517 1517 1516 1514 1513 1512 1511 1511 1511 1511 1511 1511 1512 1512 1512 1513 1514 1515 1516 1517 1518 1519 1520 1521 1522 1523 1524 1525 1526 1527 1528 1529 1530 1530 1531 1532 1533 1534 1535 1536 1538 1539
1520 1519 1518 1517 1516 1515 1514 1513 1513 1512 1512 1512 1512 1512 1512 1512 1513 1515 1516 1517 1518 1519 1520 1520 1521 1521 1522 1524 1525 1526 1527 1528 1529 1529 1530 1530 1531 1532 1533 1534 1535 1537 1538
1522 1521 1520 1519 1519 1518 1516 1516 1515 1514 1514 1514 1514 1513 1512 1512 1513 1515 1517 1518 1519 1520 1520 1520 1520 1520 1521 1523 1525 1526 1527 1528 1528 1529 1529 1530 1530 1531 1532 1533 1534 1536 1538
1523 1523 1522 1521 1520 1520 1518 1518 1517 1517 1516 1516 1515 1514 1514 1513 1514 1516 1517 1518 1519 1520 1521 1520 1519 1517 1518 1522 1524 1526 1527 1528 1528 1529 1529 1529 1529 1530 1530 1532 1533 1535 1537
1524 1524 1524 1523 1522 1521 1520 1520 1520 1519 1519 1518 1518 1517 1517 1516 1517 1517 1518 1519 1520 1521 1521 1521 1519 1517 1518 1522 1524 1526 1527 1528 1529 1529 1530 1530 1530 1530 1530 1532 1533 1534 1536
1526 1526 1526 1525 1524 1523 1523 1522 1522 1521 1521 1521 1520 1520 1520 1519 1520 1520 1520 1520 1521 1522 1523 1522 1521 1520 1521 1524 1526 1527 1528 1529 1530 1530 1530 1530 1530 1530 1531 1532 1533 1534 1535
1527 1527 1527 1526 1526 1525 1525 1525 1524 1524 1523 1523 1523 1523 1522 1522 1522 1522 1523 1523 1523 1524 1524 1524 1524 1524 1525 1526 1527 1529 1530 1530 1530 1531 1531 1531 1531 1532 1532 1532 1533 1534 1535
1528 1528 1528 1528 1527 1527 1527 1527 1526 1526 1526 1525 1525 1525 1525 1524 1524 1525 1525 1525 1525 1525 1526 1526 1526 1526 1527 1528 1529 1530 1530 1531 1532 1532 1532 1532 1532 1532 1532 1532 1533 1534 1534
1529 1529 1529 1529 1529 1529 1528 1528 1528 1528 1528 1528 1527 1527 1527 1526 1526 1527 1527 1527 1527 1528 1528 1528 1528 1529 1529 1530 1531 1531 1531 1532 1533 1533 1532 1532 1532 1532 1532 1533 1533 1534 1534
1530 1530 1530 1530 1531 1530 1530 1530 1530 1530 1530 1530 1529 1529 1529 1529 1529 1529 1529 1529 1529 1529 1530 1530 1530 1530 1531 1531 1532 1532 1533 1533 1533 1533 1533 1533 1533 1533 1532 1533 1533 1533 1533
1531 1531 1531 1532 1532 1532 1532 1532 1532 1532 1532 1532 1532 1531 1531 1531 1531 1531 1531 1531 1531 1531 1531 1531 1531 1531 1531 1532 1532 1533 1533 1534 1533 1533 1533 1533 1532 1532 1532 1532 1533 1532 1532
1532 1532 1532 1533 1533 1533 1533 1534 1533 1534 1533 1533 1533 1533 1533 1533 1533 1533 1532 1532 1533 1533 1533 1533 1533 1533 1533 1533 1533 1533 1534 1534 1533 1533 1533 1533 1532 1532 1532 1532 1532 1532 1532
1532 1532 1533 1533 1534 1534 1535 1535 1535 1535 1535 1535 1535 1535 1535 1534 1534 1534 1534 1534 1534 1534 1534 1534 1534 1534 1533 1533 1533 1533 1533 1533 1533 1533 1533 1532 1532 1531 1531 1531 1531 1531 1531
1532 1532 1533 1533 1534 1535 1535 1536 1536 1536 1536 1536 1536 1536 1536 1536 1535 1535 1535 1535 1534 1534 1534 1534 1534 1534 1533 1533 1533 1533 1533 1533 1533 1532 1532 1532 1531 1531 1530 1530 1530 1530 1529
1532 1532 1533 1533 1534 1535 1535 1536 1536 1537 1537 1537 1537 1537 1537 1537 1536 1536 1536 1535 1535 1534 1534 1534 1534 1533 1533 1533 1533 1532 1532 1532 1532 1532 1531 1531 1530 1529 1529 1528 1528 1528 1528
1531 1532 1533 1533 1534 1535 1535 1536 1537 1537 1537 1537 1537 1537 1537 1537 1537 1537 1536 1536 1535 1535 1534 1534 1534 1533 1533 1533 1533 1532 1531 1532 1531 1531 1530 1530 1529 1529 1528 1528 1527 1527 1526
1530 1531 1532 1533 1534 1534 1535 1536 1537 1537 1537 1537 1537 1537 1537 1537 1537 1536 1536 1536 1535 1535 1534 1534 1533 1533 1533 1533 1533 1533 1532 1531 1530 1530 1530 1529 1529 1528 1527 1527 1526 1525 1525
1529 1530 1531 1532 1533 1534 1535 1535 1536 1536 1536 1537 1537 1537 1537 1537 1537 1536 1536 1535 1535 1534 1534 1533 1533 1533 1533 1532 1532 1532 1532 1531 1530 1530 1529 1528 1528 1527 1526 1526 1525 1524 1524
1527 1529 1530 1531 1532 1533 1534 1535 1535 1535 1536 1536 1537 1537 1536 1536 1536 1536 1535 1534 1534 1533 1533 1532 1532 1532 1532 1532 1531 1531 1530 1530 1529 1529 1528 1527 1527 1526 1525 1525 1524 1523 1523
1526 1528 1529 1530 1531 1532 1533 1533 1534 1534 1535 1535 1535 1535 1535 1535 1535 1534 1534 1534 1533 1533 1532 1532 1531 1531 1531 1530 1530 1530 1529 1528 1528 1527 1526 1525 1525 1525 1524 1523 1522 1522 1521